Location: Bas-Clignon
(44.2000°N, 6.6333°E)
Time: 03:27:50
(UTC+00:00)

Cosmos 1745 Rocket - Pass Details

Date: 03 February 2023
Orbit: 952 x 998 km, 83.0° (Epoch: 27 March)

Event Time Altitude Azimuth Distance (km) Brightness Sun altitude
Rises 19:14:49 0° 348° (NNW) 3,694 7.2 -27.0°
Reaches altitude 10° 19:17:23 10° 345° (NNW) 2,735 6.5 -27.4°
Maximum altitude 19:23:30 58° 268° (W) 1,122 4.5 -28.5°
Drops below altitude 10° 19:29:30 10° 191° (S) 2,686 6.3 -29.6°
Sets 19:32:00 0° 187° (S) 3,623 7.0 -30.0°
